CZ-6A DEB, 54899

Orbit data source: Space-Track

CZ-6A DEB, 54899 is space debris in SSO originally from a launch on Fri, 11 Nov 2022 UTC launched from the Taiyaun Space Center, China (TSC). Debris objects in space refer to the collection of defunct objects orbiting the Earth. Examples of debris include non-operational satellites, rocket bodies, and fragments generated from explosions, collisions, or faulty payload assembly.

Loading next visibility...
Identifier
54899, 2022-151QL
Orbit
SSO
Country
Flag of CNCN / PRC
Related business
Manufacturer
SAST
Mission
Spacecraft
Bus & Motor
Unknown
Mass
Unknown
Launch date (UTC)
2022-11-11 (4 years ago)
Launch vehicle
Unknown
Launch site
Taiyaun Space Center, China (TSC)
Object type
Payload
Rocket body
Debris
Shape & HBR
Unknown shape, 0.1 m
Radar Cross Section
Medium (>0.1 m² and <1 m²)

Expand to show TLE details & history
Last TLE update: 4 days ago

TLE from 4 days ago
0 CZ-6A DEB
1 54899U 22151QL  26169.76860947  .00002711  00000-0  11027-2 0  9991
2 54899  98.7710 189.6765 0023355 311.2979  48.6191 14.28236030183911
Epoch: 2026-06-18T18:26Z
TLE epoch observation values (Epoch: 2026-06-18T18:26:47.858Z)
Latitude
-0°
Longitude
5.9699°
Altitude
789.498 km
Speed
7.465 km/s
True Right ascension
12h 38m 42s
True Declination
0° 00' 00"
Sunlit
Object was in daylight at epoch
Visualization orbit readout
Latitude
Unknown
Longitude
Unknown
Altitude
Unknown
Speed
Unknown
Apparent Right ascension
Unknown
Apparent Declination
Unknown
Sunlit
N/A
Visualization observer readout
Local Sidereal Time
23:18:56
Azimuth
Unknown
Elevation
Unknown
Doppler factor
Unknown
Orbital elements
Apogee altitude
811.536 km
Perigee altitude
778.031 km
Semi-major axis
7,172.921 km
Eccentricity
0.00234
Inclination
98.771°
RAAN
189.6765°
Arg. of periapsis
311.2979°
True anomaly
48.8203°
Mean anomaly
48.6191°
Eccentric anomaly
48.71966°
Mean motion
3.57272 °/min
Orbital period
100.76 mins
BSTAR
0.0011027
Loading maneuver chart data...
Computing Atmospheric mass density...
Loading historical data...
Loading historical data...
Loading historical data...
Loading historical data...
Loading historical data...
Loading historical data...
Loading historical data...

Documentation

Showing up to 5 results
|